User: anonymous   Login
Location: Unspecified
(0.0000°N, 0.0000°E)
Time: 23:02:34
(UTC+00:00)
Language:

STARLINK-31193 - Orbit

View from above orbital plane
View from above orbital plane
View from above satellite
View from above satellite

Ground track
Ground track

The orbit is defined by the following mean orbital elements,

1 58797U          26145.23598705 +.00000000 +00000-0 +32667-4 0 00004
2 58797  43.0036  92.8756 0001036 270.0970  89.9763 15.27577122    07
Epoch (UTC): 25 May 2026 05:39:49
Eccentricity: 0.0001036
inclination: 43.0036°
perigee height: 482 km
apogee height: 484 km
right ascension of ascending node: 92.8756°
argument of perigee: 270.0970°
revolutions per day: 15.27577122
mean anomaly at epoch: 89.9763°

The dashed part of the orbit path shows where the satellite is in the earth's shadow,  

DLR